Weather in Tampa

United States     27°56′50″N   82°27′31″W
temp.,
°C
wind,
m/s
gust,
m/s
humid.,
%
clouds,
%
prec.,
mm/h
press.,
hPa
HPBL,
m
17 may, mon
mon1723:00+22e7125420 0.0 1021782
02:00+19e5106773 0.0 1021389
05:00+18ene487310 0.0 1020204
08:00+20ene486772 0.0 1021257
11:00+27e56393 0.0 10211609
14:00+31ese46311 0.0 10181870
17:00+32se342966 0.0 10162328
20:00+28e693885 0.0 1018987
18 may, tue
tue1823:00+23e7115897 0.0 1020721
02:00+20e51167100 0.0 1020425
05:00+19e4981100 0.0 1019287
08:00+21e5979100 0.0 1021364
11:00+27e684826 0.0 10211659
14:00+28e884866 0.0 10191309
17:00+28e8104552 0.1 10181296
20:00+28e8114127 0.1 10181081
19 may, wed
wed1923:00+22ene814764 0.0 1020627
02:00+21ene613835 0.0 1020596
05:00+20ene5128571 0.0 1019463
08:00+22ene511735 0.0 1020494
11:00+29e78465 0.0 10201868
14:00+33e673112 0.0 10172443
17:00+30e8104337 0.0 10171449
20:00+26e1012635 0.0 10191047
20 may, thu
thu2023:00+23e813738 0.0 1021883
02:00+22e7137749 0.0 1020821
05:00+21e61372100 0.0 1020793
08:00+23e711588 0.0 10211278
11:00+28e8104149 0.0 10211809
14:00+31e9103392 0.0 10201884
17:00+29e9103571 0.0 10201792
20:00+25ene9114983 0.0 10211611
21 may, fri
fri2123:00+23ene7115892 0.0 10221228
02:00+22ene612690 0.0 1022760
05:00+23ene611540 0.0 10211066
08:00+23ene712608 0.0 1023958
11:00+29e810415 0.0 10231711
14:00+32e89285 0.0 10211926
17:00+32e910291 0.0 10202007
20:00+27ene1011493 0.0 10221299